Погода в Чиркее

Россия / Республика Дагестан     42°57′43″N   46°58′39″E
темп.,
°C
ветер,
м/с
пор.,
м/с
влажн.,
%
обл.,
%
осадки,
мм/ч
давл.,
гПа
погр.,
м
4 июля, пн
пн400:00+19з611465 0.0 1014362
03:00+18з6104812 0.0 1014230
06:00+20з410494 0.0 1015762
09:00+24зсз710344 0.0 10152430
12:00+26зсз682815 0.0 10142860
15:00+28сз672562 0.0 10133073
18:00+24в124127 0.0 1014440
21:00+19юз32481 0.0 101419
5 июля, вт
вт500:00+19юз33440 0.0 101422
03:00+18юз33450 0.0 101423
06:00+21юз33460 0.0 101473
09:00+27зсз45280 0.0 10142447
12:00+29сз57254 0.0 10133082
15:00+26св6746100 0.0 10131023
18:00+22юв3362100 0.0 1013313
21:00+21в0169100 0.3 101519
6 июля, ср
ср600:00+19ю117623 0.0 101511
03:00+18ююз217214 0.0 101511
06:00+21ююз11574 0.0 101583
09:00+25св32441 0.0 10151265
12:00+27св433356 0.0 10152122
15:00+25всв75433 0.0 10151113
18:00+22в55530 0.0 1015812
21:00+18вюв237610 0.0 101777
7 июля, чт
чт700:00+16юв35811 0.0 1016127
03:00+16юв458531 0.0 1015295
06:00+18вюв468130 0.0 1016489
09:00+21вюв776346 0.0 10151028
12:00+24в885334 0.0 10141301
15:00+24вюв88510 0.0 10131069
18:00+21вюв675637 0.0 1013685
21:00+17юв457142 0.0 1014117
8 июля, пт
пт800:00+16юв337979 0.0 101360
03:00+16юв347979 0.0 101269
06:00+18юв356813 0.0 1013231
09:00+26вюв783441 0.0 10121242
12:00+28вюв992887 0.0 10111629
15:00+27вюв9931100 0.0 10111264
18:00+24вюв5741100 0.0 1011626
21:00+20юв3558100 0.0 101295